GFSFLT2_con_3kmhel_225.txt.gz
Helicity
61 28 39 42 68 81 73 81 90 90 93 93 93 89 85 90 92 104 99 90 81 75 82 85 77 84 101 113 122 103 84 78
73 65 78 75 71 74 77 70 79 90 99 96 94 92 89 85 91 91 96 90 83 73 77 78 77 86 94 109 123 122 90 96
76 79 92 88 82 74 82 77 80 95 95 95 92 76 65 68 76 67 75 82 83 76 80 89 89 87 94 102 113 109 107 97
64 69 78 82 81 102 95 99 94 87 82 85 77 75 66 63 68 63 67 80 81 81 84 99 91 86 102 109 108 120 122 96
56 69 80 79 86 97 100 104 103 92 87 84 80 77 76 74 77 86 86 88 80 72 84 93 103 105 105 109 105 131 134 102
67 63 78 80 86 97 100 107 107 90 80 88 84 83 82 85 98 110 103 96 82 57 63 94 115 114 107 112 115 110 128 121
81 66 68 75 85 93 100 96 82 72 77 75 85 86 88 90 96 106 105 105 108 106 101 81 94 103 101 101 109 114 132 152
101 86 72 84 99 88 88 83 70 65 63 65 74 75 77 84 85 97 107 121 134 124 135 124 114 117 113 115 113 119 129 134
105 124 113 107 103 93 84 75 78 53 48 45 55 62 68 76 85 104 113 138 154 149 144 146 139 132 131 146 136 142 168 189
118 135 131 116 96 87 73 61 60 47 33 33 43 52 52 57 64 85 120 152 151 146 166 178 166 147 159 138 131 178 182 230
147 163 171 153 116 104 103 88 59 58 61 56 64 70 105 105 106 116 138 168 189 175 181 203 210 196 196 218 183 257 159 268
140 171 185 177 180 150 137 138 123 89 85 84 76 78 83 116 116 118 152 186 212 202 195 218 206 183 174 191 185 190 233 282
155 215 220 278 293 250 205 196 169 118 105 81 65 58 72 85 124 151 162 176 219 218 203 175 180 170 216 195 214 189 172 216
187 195 261 277 264 220 241 209 176 144 104 84 60 64 77 131 164 170 193 230 236 218 203 218 216 213 226 267 239 272 244 258
157 201 280 289 274 349 322 262 235 180 138 117 92 92 110 144 161 170 189 213 197 185 180 178 183 204 242 249 256 219 243 264
153 223 280 305 285 344 276 252 239 201 172 126 107 113 105 144 153 180 198 183 177 174 178 175 184 207 218 212 241 295 261 237
151 197 270 273 221 258 262 250 235 204 152 115 91 107 104 109 142 193 164 167 153 145 142 155 185 190 222 239 210 313 302 269
145 194 270 243 265 257 222 245 201 170 136 115 104 79 61 96 153 166 154 154 150 144 137 148 158 154 180 195 210 259 277 302
154 191 237 212 213 229 216 196 187 151 149 119 100 74 57 87 148 147 158 162 158 166 170 171 161 162 142 143 156 176 195 205
148 157 183 188 196 189 185 202 207 193 166 145 101 72 93 146 126 149 158 183 181 176 175 166 154 135 115 125 120 115 115 179

GFSFLT2_con_3kmhel_231.txt.gz
Helicity
81 84 81 81 86 79 77 69 64 69 69 64 89 76 75 69 66 66 69 71 76 70 59 59 61 59 56 52 41 12 -22 21
74 69 66 54 59 69 72 68 69 74 78 88 85 78 69 65 66 66 74 85 92 91 87 77 67 67 65 59 48 27 4 29
91 63 57 37 46 66 61 59 81 86 85 86 92 64 68 81 89 97 77 83 82 72 62 67 75 84 89 87 74 56 56 64
107 75 108 52 39 70 58 70 69 66 71 89 54 63 54 79 115 96 80 73 80 86 84 86 71 58 71 80 72 45 76 97
111 80 109 75 93 99 50 52 55 58 79 76 35 48 72 81 103 78 71 81 71 83 87 60 47 44 90 97 61 72 79 81
105 103 113 107 117 74 99 101 86 66 84 63 28 53 84 62 99 53 20 103 29 83 67 82 83 61 59 87 113 110 109 93
89 107 103 107 106 74 108 79 75 48 69 76 39 62 62 85 70 60 57 91 81 62 52 87 91 84 84 85 84 86 86 122
80 90 89 93 80 79 82 44 64 37 123 101 63 70 103 57 58 46 69 67 78 90 78 66 98 113 132 111 110 108 107 92
97 72 112 72 59 66 62 56 61 75 97 118 116 85 74 56 58 56 51 68 75 85 101 134 123 157 179 182 148 125 119 213
102 91 100 78 76 64 59 74 76 83 88 137 129 95 72 78 70 52 44 45 50 62 84 116 178 220 255 258 211 212 154 117
110 108 106 112 108 93 98 103 123 137 136 110 89 77 80 58 67 60 57 44 57 50 80 112 164 239 261 181 175 149 144 135
109 129 117 157 171 155 134 143 128 140 134 128 119 81 66 60 58 69 55 38 27 51 81 130 179 206 234 189 147 139 130 99
141 176 165 215 261 292 281 230 195 180 151 122 120 105 70 71 89 89 62 77 58 94 147 177 209 172 204 168 118 137 118 124
143 150 167 218 260 312 303 270 230 180 162 139 134 126 105 88 132 135 111 82 72 78 110 143 171 146 169 147 166 83 51 55
117 146 159 335 296 249 258 291 268 253 225 169 132 135 129 148 134 89 69 80 85 118 111 101 132 108 109 141 147 163 110 68
98 138 196 486 354 194 324 372 320 272 187 181 159 185 182 152 120 89 100 111 125 115 72 125 98 91 102 118 87 96 180 145
177 157 199 367 331 226 282 241 223 228 174 141 209 224 175 143 124 126 147 126 116 98 125 110 114 108 90 120 131 98 111 155
107 121 195 206 255 195 174 145 200 232 280 247 222 212 175 149 169 172 143 121 103 123 125 96 117 137 136 133 141 174 196 179
96 102 130 122 151 70 104 114 214 236 168 193 233 213 177 196 202 162 144 120 120 125 119 136 148 163 150 148 146 136 134 133
84 88 110 123 109 87 92 107 219 147 169 209 243 207 174 213 166 155 120 121 144 143 150 166 158 163 156 162 160 144 130 123

GFSFLT2_con_3kmhel_234.txt.gz
Helicity
104 83 82 87 94 93 91 72 69 66 56 51 59 55 47 46 51 47 53 64 67 61 51 50 47 43 40 32 22 -11 5 63
100 103 86 84 83 83 71 70 72 62 60 56 64 55 49 51 53 57 61 60 53 46 44 44 44 54 56 46 35 10 12 51
71 108 98 85 80 74 73 79 82 79 66 67 69 39 43 61 57 91 62 61 54 51 47 45 49 53 53 58 59 51 64 97
100 87 105 87 74 96 78 79 86 77 74 74 35 -0 50 70 102 81 70 64 55 50 43 41 41 32 83 57 36 37 23 51
141 91 114 92 85 121 96 91 75 63 63 89 27 41 78 117 113 78 81 62 51 56 56 37 41 50 91 82 66 26 68 86
127 204 184 139 115 118 81 94 75 69 72 83 41 48 65 63 89 75 55 65 13 63 63 43 53 64 38 42 85 135 120 108
147 224 187 175 166 96 53 86 75 86 92 70 56 49 62 50 76 91 50 86 45 34 47 74 72 73 80 87 80 91 92 123
237 224 153 166 185 98 115 126 91 77 90 93 92 70 62 88 111 108 78 87 82 77 77 75 82 105 125 165 166 169 166 150
268 233 196 133 139 106 93 85 80 71 108 130 104 90 75 137 128 78 81 82 100 118 95 72 81 117 168 230 298 316 209 201
301 284 242 170 139 141 92 53 115 122 132 119 138 112 115 130 101 77 76 91 113 96 65 71 74 90 132 178 249 297 195 198
307 265 258 194 134 137 109 60 155 176 147 194 188 165 146 114 85 80 89 125 128 108 109 106 66 61 81 150 202 203 190 193
366 320 330 235 162 151 136 163 192 194 188 174 167 154 122 130 132 90 72 152 113 87 125 93 88 75 122 184 184 193 170 156
407 473 359 300 236 233 245 266 262 210 196 155 133 156 137 122 129 132 177 156 221 184 181 160 126 113 139 134 166 150 146 169
312 442 425 288 267 258 272 296 273 234 189 157 163 166 162 142 117 220 290 216 196 146 122 114 99 108 135 163 186 149 144 115
247 384 445 394 291 310 335 314 265 279 246 255 221 186 176 169 155 274 223 202 147 133 145 136 121 124 138 186 185 181 125 139
341 294 385 451 444 408 350 346 380 324 315 272 233 194 190 158 272 222 175 173 163 166 142 127 145 143 146 125 116 138 118 75
106 169 279 406 571 459 413 349 285 277 254 237 242 220 185 260 221 195 201 200 192 182 156 150 175 211 208 149 123 132 145 175
236 201 218 347 420 357 362 385 314 213 209 224 306 316 300 288 237 222 197 206 194 177 151 159 193 196 199 176 190 172 182 191
145 122 216 313 272 269 303 317 278 186 194 261 403 396 303 302 275 236 215 202 195 172 186 173 207 224 191 184 179 166 181 214
91 82 137 213 231 202 213 193 178 210 296 383 327 278 300 256 266 243 194 215 202 170 203 216 199 188 189 199 192 184 175 206

GFSFLT2_con_3kmhel_237.txt.gz
Helicity
89 85 99 103 102 85 64 68 73 68 60 51 44 43 35 43 45 42 42 35 32 32 29 27 20 14 15 14 2 28 53 59
140 127 129 126 117 94 79 79 70 68 69 58 54 48 47 47 51 51 45 30 29 30 28 19 16 16 14 16 20 24 64 84
137 162 153 146 131 103 102 93 85 75 72 71 60 40 41 42 41 35 34 36 34 30 31 25 21 23 27 24 21 38 43 104
137 158 168 168 144 140 125 114 92 82 75 65 49 32 33 35 42 56 57 55 59 44 35 35 26 30 24 29 31 22 12 105
111 144 168 178 161 150 143 128 106 82 69 59 38 25 29 35 55 54 67 51 41 30 34 23 12 28 17 42 47 50 62 104
109 138 146 159 199 157 148 143 118 95 79 71 58 41 44 74 67 61 53 43 33 13 34 24 9 11 46 54 62 75 97 143
140 178 158 122 195 152 149 139 123 98 84 82 70 61 69 82 48 75 64 62 39 33 41 29 23 34 55 60 73 102 144 207
277 235 209 209 194 168 169 136 117 101 86 99 93 71 88 60 61 58 103 60 59 53 69 85 92 96 108 125 124 141 180 240
386 338 252 260 210 178 169 153 136 121 126 143 120 88 99 95 89 111 115 101 105 126 109 100 108 92 74 96 139 195 226 252
414 379 274 247 219 177 169 161 142 135 125 129 132 116 101 131 173 165 156 151 145 139 113 139 127 111 101 79 64 111 147 206
411 446 331 239 226 178 125 125 129 102 145 144 137 150 151 195 184 148 154 175 163 143 154 185 180 139 111 76 67 65 109 116
473 495 419 333 268 232 140 81 90 141 192 191 175 178 186 222 188 139 148 170 163 178 226 195 184 134 110 97 70 82 102 109
546 573 520 467 336 329 252 184 149 191 247 246 237 239 195 213 205 170 156 181 197 230 280 236 179 151 152 136 92 92 103 124
605 613 619 532 449 320 331 293 254 197 226 214 224 213 201 189 202 165 151 298 292 271 281 228 175 157 132 127 99 90 64 68
527 649 631 591 500 400 371 361 326 274 251 226 213 211 202 202 185 177 240 319 267 229 227 202 169 117 106 133 113 102 121 97
441 501 535 506 489 466 430 385 387 383 344 313 258 205 171 203 199 282 351 286 242 255 183 184 184 143 151 124 176 170 156 113
276 338 400 416 463 456 438 403 358 372 373 300 218 213 178 177 291 356 282 271 228 218 197 177 194 214 195 188 181 171 184 180
247 361 271 390 429 438 441 398 406 436 379 329 273 232 222 247 323 297 235 275 279 197 191 193 203 197 196 215 236 239 216 180
215 220 222 254 333 385 381 359 379 368 357 300 344 335 292 278 321 296 298 298 243 225 187 174 188 200 205 232 221 212 209 211
135 120 140 201 286 279 302 324 333 305 330 342 395 358 357 417 348 301 300 265 251 220 198 175 175 156 172 206 202 187 185 202

GFSFLT2_con_3kmhel_240.txt.gz
Helicity
78 66 52 61 56 61 75 73 59 56 56 61 54 43 47 43 45 48 39 38 36 32 25 19 18 25 24 24 32 34 60 91
95 96 96 94 97 104 106 91 71 66 58 52 46 48 43 45 46 35 32 26 23 22 19 18 17 20 19 36 52 51 61 95
90 109 119 106 122 118 120 109 95 81 71 55 51 36 33 46 36 24 16 12 14 18 14 13 9 8 5 20 36 57 49 83
113 129 130 136 141 136 125 112 101 96 71 63 58 40 32 34 26 27 23 25 29 28 24 18 16 9 -2 -2 17 28 40 52
121 158 159 183 163 147 142 127 122 106 87 84 72 55 43 35 22 11 24 32 35 26 14 15 10 2 -4 4 17 36 43 51
126 183 194 201 196 183 165 149 129 121 87 85 81 68 57 43 29 32 42 42 42 35 30 27 30 30 24 22 26 27 42 90
141 177 221 224 222 197 186 169 145 125 104 91 91 81 77 63 40 58 46 43 47 46 35 32 40 41 51 51 56 65 80 111
210 190 188 207 209 209 211 184 152 136 118 109 93 81 94 86 59 66 48 59 64 58 54 57 84 105 118 115 112 113 122 143
292 269 224 195 170 199 208 166 155 127 126 108 99 91 94 99 81 85 66 74 77 84 102 137 150 128 126 99 98 94 106 133
337 298 291 244 166 196 217 181 167 142 120 119 97 98 93 87 107 103 87 106 100 154 162 145 150 148 126 100 91 84 75 78
367 348 321 291 210 206 248 213 203 168 149 146 121 107 109 111 103 121 168 183 186 180 175 168 168 184 156 125 107 83 62 59
442 370 343 321 244 205 234 269 216 220 189 167 163 137 132 163 164 184 230 225 207 218 203 192 190 192 171 123 95 87 69 67
402 391 409 455 385 303 278 286 298 252 196 169 184 180 180 203 253 238 246 250 236 225 243 235 234 211 197 141 105 95 56 42
453 445 525 514 472 391 318 292 285 304 267 215 228 235 233 251 286 262 247 268 255 296 271 284 226 188 157 159 165 134 92 61
483 490 518 527 472 472 477 471 368 325 321 298 321 291 284 293 286 273 255 288 314 338 328 319 196 155 171 218 192 131 190 134
482 504 495 514 528 550 537 475 402 337 295 282 364 353 303 266 256 241 253 307 379 406 340 229 185 168 188 158 144 191 155 167
511 509 503 500 511 527 465 416 374 344 309 296 353 370 299 247 242 240 251 320 372 496 326 252 180 134 192 191 170 179 165 181
396 350 347 377 404 405 417 412 423 391 376 341 306 307 256 220 253 277 266 345 460 448 200 128 194 146 170 161 199 200 172 179
244 250 245 246 270 314 360 369 390 381 376 340 300 313 317 257 325 341 288 350 468 415 153 259 226 186 160 167 212 187 216 194
226 226 173 193 209 204 236 251 306 323 336 309 290 288 301 285 296 344 374 396 384 261 228 269 224 203 178 188 196 204 219 198

GFSFLT2_con_3kmhel_246.txt.gz
Helicity
99 100 114 84 88 96 97 82 71 68 59 56 72 71 68 65 56 50 48 53 61 57 59 55 63 52 41 42 46 42 37 31
48 69 119 106 101 112 108 91 82 70 65 68 64 68 67 48 57 49 49 55 58 50 57 70 55 41 37 36 38 34 23 26
13 85 116 120 122 118 118 102 93 75 76 75 84 83 59 49 31 29 41 49 48 51 60 54 53 42 34 36 39 30 27 28
69 98 123 130 145 157 145 127 114 92 85 92 94 80 58 46 42 40 41 43 48 56 60 53 45 50 53 49 43 39 44 36
86 110 110 124 162 177 169 165 136 96 83 98 102 90 68 54 46 43 42 41 57 63 59 65 61 66 72 66 54 53 54 49
119 106 92 113 177 198 202 209 183 139 112 116 127 119 93 69 53 51 53 57 61 69 75 74 75 60 68 64 55 75 68 63
122 165 132 148 169 182 210 224 215 184 161 150 154 141 122 99 71 62 64 84 68 63 71 78 72 61 65 67 71 81 67 78
116 109 134 193 192 187 205 240 224 216 187 181 180 162 149 131 102 76 55 91 81 72 75 74 71 75 73 90 104 103 95 94
154 134 101 116 129 194 213 234 230 219 205 202 205 193 172 158 126 109 84 88 85 86 82 96 93 91 95 111 126 111 112 99
179 143 123 106 138 172 195 236 230 210 214 213 207 211 198 177 169 139 129 119 116 122 119 112 108 116 134 129 134 133 126 114
234 235 185 183 177 194 208 234 222 199 202 204 205 219 224 204 183 156 156 155 160 159 154 153 155 161 176 161 160 151 138 131
272 252 249 226 243 210 188 210 203 188 180 177 190 200 227 230 203 186 187 181 185 220 196 189 206 209 213 203 177 165 162 144
406 349 277 345 301 306 240 216 193 159 159 155 184 188 209 235 224 208 228 220 222 231 242 232 238 293 292 256 241 211 166 158
439 410 326 360 358 375 311 260 210 194 180 172 190 209 231 246 253 247 257 258 268 285 312 287 266 381 373 385 313 375 300 230
417 491 421 355 333 370 404 352 291 270 251 229 218 221 234 254 269 271 296 311 290 314 319 317 319 381 406 355 488 367 535 316
285 294 324 325 359 398 420 424 395 347 304 272 243 235 239 258 267 270 295 316 264 283 301 310 333 383 528 605 701 541 988 384
185 249 304 382 424 405 409 386 362 380 381 347 302 271 228 262 263 258 267 309 266 270 347 348 494 529 627 430 586 652 513 409
245 325 364 399 371 395 423 366 393 406 393 348 312 274 278 281 273 262 274 289 318 340 277 362 482 485 544 494 492 472 373 203
192 250 276 323 340 335 362 341 357 340 333 317 289 287 286 293 288 269 280 277 292 317 388 418 513 616 551 545 340 344 166 205
66 119 152 180 226 256 262 276 300 277 251 243 234 241 265 264 269 260 235 261 320 348 373 408 531 592 411 362 324 328 220 310

GFSFLT2_con_3kmhel_252.txt.gz
Helicity
95 25 11 72 71 66 69 79 92 95 92 99 89 80 74 70 62 52 58 61 71 83 78 79 75 75 60 49 42 23 -6 14
14 17 11 7 52 71 87 98 105 105 97 100 89 88 70 63 55 55 51 51 61 68 70 72 70 73 62 51 46 32 10 30
12 2 -1 61 64 71 72 85 108 113 110 115 114 82 78 74 45 94 53 55 58 61 66 66 67 70 65 60 45 33 38 38
76 11 85 74 57 71 78 85 97 99 105 122 97 82 74 62 80 81 63 62 60 56 58 68 61 55 80 80 46 59 46 55
108 111 100 78 56 59 73 79 97 95 98 109 96 98 91 85 85 89 72 75 59 76 75 54 51 51 64 71 76 62 57 71
116 102 61 50 51 66 62 79 94 100 105 114 112 104 107 98 89 81 81 87 65 72 74 62 66 67 74 80 72 63 77 82
85 88 85 60 32 33 51 74 97 91 110 113 110 97 101 100 100 91 83 83 81 77 70 80 71 72 78 81 74 75 93 90
106 96 82 74 71 57 60 66 74 87 107 115 113 108 104 96 99 93 89 79 80 78 74 74 72 72 80 71 68 72 88 95
119 118 112 99 84 73 77 77 80 85 73 83 107 110 114 94 95 89 85 86 76 82 86 86 81 80 78 88 83 83 90 108
105 118 127 113 95 93 90 87 83 72 81 83 89 99 103 110 95 94 91 97 96 98 96 94 92 87 89 91 98 101 119 129
104 125 127 141 119 92 76 68 82 81 81 89 100 106 112 110 102 96 102 97 96 100 112 105 108 112 101 110 116 129 138 145
96 123 103 127 127 119 87 72 84 83 95 98 104 115 117 134 116 118 124 112 114 121 107 121 125 109 139 162 153 172 188 207
93 101 103 143 174 177 140 121 107 106 98 99 103 112 126 124 116 115 123 117 114 126 128 132 130 175 163 202 173 177 229 331
81 87 101 120 140 148 112 90 87 95 100 103 114 121 130 146 140 140 143 139 134 141 174 174 152 173 290 238 246 335 428 368
89 87 79 84 91 121 107 88 73 76 93 100 122 126 137 148 158 149 149 164 169 177 185 192 171 179 248 324 345 336 359 360
36 64 72 46 66 61 86 60 22 25 37 52 85 110 134 151 155 159 159 183 207 216 242 250 227 202 288 323 363 349 342 306
60 47 16 23 43 36 48 42 25 40 61 66 116 133 153 197 197 161 189 223 216 210 236 246 240 231 375 444 510 434 465 519
46 8 6 18 24 17 11 26 48 55 69 89 108 122 183 209 194 177 162 245 223 224 219 215 275 324 328 437 462 387 436 504
71 69 76 69 64 68 68 60 66 67 72 86 90 100 139 165 181 183 232 221 186 205 216 244 279 309 327 431 335 341 399 405
56 38 28 19 14 16 28 32 50 56 54 63 76 88 93 98 146 136 148 170 153 176 211 217 225 252 267 320 366 333 440 375